Regional Weather Roundup
Issued by NWS

Home | Current Version | Previous Version | Graphics & Text | Print | Product List | Glossary On
Versions: 1 2 3 4 5 6 7 8 9 10 11 12 13 14 15 16 17 18 19 20 21 22 23 24 25 26 27 28 29 30 31 32 33 34 35 36 37 38 39 40 41 42 43 44 45 46 47 48 49 50
000
ASUS43 KTOP 251659
RWRKS

WEATHER ROUNDUP FOR KANSAS
NATIONAL WEATHER SERVICE GOODLAND KS
1200 PM CDT WED MAY 25 2016

NOTE:  "FAIR" INDICATES FEW OR NO CLOUDS BELOW 12,000 FEET WITH NO
SIGNIFICANT WEATHER AND/OR OBSTRUCTIONS TO VISIBILITY.

KSZ001>006-013>018-027>032-041>047-251800-
NORTHWEST KANSAS

CITY           SKY/WX    TMP DP  RH WIND       PRES   REMARKS
GOODLAND       CLOUDY    64  55  72 CALM      29.94R
HAYS           CLOUDY    59  57  94 NE13      29.85S
HILL CITY      CLOUDY    65  59  81 E10       29.88F
RUSSELL        CLOUDY    66  63  90 NE12      29.84F
$$

KSZ061>065-074>080-084>089-251800-
SOUTHWEST KANSAS

CITY           SKY/WX    TMP DP  RH WIND       PRES   REMARKS
DODGE CITY     SUNNY     73  64  73 W12       29.86R
ELKHART          N/A     81  39  22 W5          N/A
GARDEN CITY    SUNNY     73  60  63 NW7       29.88S
GREAT BEND     CLOUDY    75  63  64 S10       29.83S
LIBERAL        SUNNY     79  52  38 NW9       29.92R
$$

KSZ066>073-081>083-090>101-251800-
SOUTHEAST KANSAS

CITY           SKY/WX    TMP DP  RH WIND       PRES   REMARKS
CHANUTE        CLOUDY    77  63  61 S12       29.92R
COFFEYVILLE    SUNNY     78  64  61 S18G29    29.89F
HUTCHINSON     PTSUNNY   78  71  79 S20G25    29.85S
MEDICINE LODGE   N/A     84  63  49 SW13      29.81S
NEWTON         CLOUDY    73  64  73 S17G23    29.89F
PARSONS        SUNNY     77  64  64 S14G25    29.91R
WICHITA INTL   CLOUDY    78  70  76 S24G33    29.84S
WICHITA JABRA  CLOUDY   N/A N/A N/A MISG      29.85S
WINFIELD       CLOUDY    78  70  76 S16G25    29.87F
$$

KSZ007>012-019>026-033>040-048>060-102>105-251800-
NORTHEAST KANSAS

CITY           SKY/WX    TMP DP  RH WIND       PRES   REMARKS
CONCORDIA      CLOUDY    66  60  81 E10       29.88F
EMPORIA        MOSUNNY   74  65  73 S18       29.89F
LAWRENCE       CLOUDY    75  61  61 E5        29.92R
MANHATTAN      CLOUDY    73  65  75 VRB3      29.87S
OLATHE IND     CLOUDY    74  61  63 CALM      29.94R
OLATHE EXE     PTSUNNY   74  59  59 S5        29.94R
SALINA         CLOUDY    77  70  79 S13       29.85S
TOPEKA BILLARD CLOUDY    73  63  70 NE7       29.91R
TOPEKA FORBES  MOSUNNY   79  64  60 S14       29.89F
$$




USA.gov is the U.S. government's official web portal to all federal, state and local government web resources and services.